Tyrone, NM

8:26 PM MDT on September 25, 2016 (GMT -0600)
Grant County

Weather History for KSVC - December, 2013

Change the Weather History Date:

Monday, December 2, 2013

  Actual Average (KDMN) Record (KDMN)
Temperature  
Mean Temperature 48 °F 44 °F  
Max Temperature 64 °F 60 °F 74 °F (2012)
Min Temperature 33 °F 29 °F 19 °F (1948)
Degree Days  
Heating Degree Days 16    
Moisture  
Dew Point 19 °F    
Average Humidity 37    
Maximum Humidity 70    
Minimum Humidity 14    
Precipitation  
Precipitation 0.00 in 0.03 in 0.39 in (2002)
Month to date precipitation 0.06  
Year to date precipitation 10.72  
Sea Level Pressure  
Sea Level Pressure 30.09 in    
Wind  
Wind Speed 14 mph (NW)    
Max Wind Speed 29 mph    
Max Gust Speed 34 mph    
Visibility 10 miles    
Events Thunderstorm    
T = Trace of Precipitation, MM = Missing Value Source: NWS Daily Summary

Daily Weather History Graph

Daily Weather History Graph

Search for Another Location

Airport or City:

Trip Planner

Search our weather history database for the weather conditions in past years. The results will help you decide how hot, cold, wet, or windy it might be!

Date:

Astronomy

Dec. 02, 2013 Rise Set
Actual Time 6:57 AM MST 5:06 PM MST
Civil Twilight 6:30 AM MST 5:33 PM MST
Nautical Twilight 6:00 AM MST 6:03 PM MST
Astronomical Twilight 5:30 AM MST 6:33 PM MST
Moon 6:28 AM MST (12/2) 5:10 PM MST (12/2)
Length of Visible Light 11h 02m
Length of Day
10h 08m
Waning Crescent, 0% of the Moon is Illuminated
Dec 2
Waning Crescent
Dec 2
New
Dec 9
First Quarter
Dec 17
Full
Dec 25
Last Quarter

Hourly Weather History & Observations

Time (MST) Temp. Windchill Dew Point Humidity Pressure Visibility Wind Dir Wind Speed Gust Speed Precip Events Conditions
12:15 AM 35.6 °F 28.0 °F 26.6 °F 70% 30.23 in 10.0 mi NNW 10.4 mph - N/A   Clear
12:35 AM 35.6 °F 28.6 °F 26.6 °F 70% 30.22 in 10.0 mi NW 9.2 mph - N/A   Clear
12:55 AM 37.4 °F 29.8 °F 26.6 °F 65% 30.21 in 10.0 mi NW 11.5 mph - N/A   Clear
1:15 AM 35.6 °F 28.0 °F 26.6 °F 70% 30.21 in 10.0 mi NW 10.4 mph - N/A   Clear
1:35 AM 33.8 °F 25.8 °F 24.8 °F 70% 30.20 in 10.0 mi WNW 10.4 mph - N/A   Clear
1:55 AM 39.2 °F 31.6 °F 26.6 °F 61% 30.20 in 10.0 mi NW 12.7 mph - N/A   Clear
2:15 AM 39.2 °F 30.8 °F 24.8 °F 56% 30.19 in 10.0 mi WNW 15.0 mph - N/A   Clear
2:35 AM 39.2 °F 31.6 °F 24.8 °F 56% 30.19 in 10.0 mi NW 12.7 mph - N/A Thunderstorm Clear
2:55 AM 37.4 °F 29.3 °F 26.6 °F 65% 30.18 in 10.0 mi NW 12.7 mph - N/A   Clear
3:15 AM 39.2 °F 31.6 °F 26.6 °F 61% 30.17 in 10.0 mi NW 12.7 mph - N/A   Clear
3:35 AM 39.2 °F 29.8 °F 24.8 °F 56% 30.16 in 10.0 mi NW 18.4 mph - N/A   Clear
3:55 AM 37.4 °F 29.3 °F 24.8 °F 60% 30.16 in 10.0 mi NW 12.7 mph - N/A   Clear
4:15 AM 35.6 °F 26.2 °F 24.8 °F 65% 30.15 in 10.0 mi WNW 15.0 mph - N/A   Clear
4:35 AM 33.8 °F 23.9 °F 24.8 °F 70% 30.15 in 10.0 mi NW 15.0 mph - N/A   Clear
4:55 AM 37.4 °F 28.5 °F 24.8 °F 60% 30.15 in 10.0 mi NW 15.0 mph - N/A   Clear
5:15 AM 37.4 °F 27.8 °F 24.8 °F 60% 30.15 in 10.0 mi NW 17.3 mph - N/A   Clear
5:35 AM 33.8 °F 25.3 °F 24.8 °F 70% 30.15 in 10.0 mi NW 11.5 mph - N/A   Clear
5:55 AM 33.8 °F 24.3 °F 23.0 °F 65% 30.15 in 10.0 mi NW 13.8 mph - N/A   Clear
6:15 AM 35.6 °F 27.1 °F 24.8 °F 65% 30.15 in 10.0 mi WNW 12.7 mph - N/A   Clear
6:35 AM 33.8 °F 26.4 °F 24.8 °F 70% 30.15 in 10.0 mi NW 9.2 mph - N/A   Clear
6:55 AM 33.8 °F 25.3 °F 24.8 °F 70% 30.15 in 10.0 mi NW 11.5 mph - N/A   Clear
7:15 AM 35.6 °F 28.0 °F 24.8 °F 65% 30.15 in 10.0 mi NNW 10.4 mph - N/A   Clear
7:35 AM 37.4 °F 27.8 °F 24.8 °F 60% 30.15 in 10.0 mi NW 17.3 mph - N/A   Clear
7:55 AM 39.2 °F 29.8 °F 24.8 °F 56% 30.15 in 10.0 mi WNW 18.4 mph - N/A   Clear
8:15 AM 41.0 °F 32.2 °F 24.8 °F 53% 30.15 in 10.0 mi NW 18.4 mph - N/A   Clear
8:35 AM 42.8 °F 35.4 °F 24.8 °F 49% 30.15 in 10.0 mi WNW 15.0 mph - N/A   Clear
8:55 AM 46.4 °F 40.1 °F 24.8 °F 43% 30.16 in 10.0 mi NW 15.0 mph - N/A   Clear
9:15 AM 48.2 °F - 24.8 °F 40% 30.16 in 10.0 mi WNW 15.0 mph - N/A   Clear
9:35 AM 50.0 °F - 24.8 °F 37% 30.15 in 10.0 mi WNW 13.8 mph - N/A Thunderstorm Clear
9:55 AM 55.4 °F - 19.4 °F 25% 30.15 in 10.0 mi WNW 15.0 mph - N/A   Clear
10:15 AM 57.2 °F - 15.8 °F 20% 30.15 in 10.0 mi WNW 17.3 mph - N/A   Clear
10:35 AM 57.2 °F - 10.4 °F 16% 30.14 in 10.0 mi WNW 16.1 mph - N/A   Clear
10:55 AM 59.0 °F - 10.4 °F 15% 30.13 in 10.0 mi West 18.4 mph - N/A   Clear
11:15 AM 59.0 °F - 12.2 °F 16% 30.12 in 10.0 mi WNW 15.0 mph - N/A   Clear
11:35 AM 59.0 °F - 14.0 °F 17% 30.12 in 10.0 mi West 13.8 mph - N/A   Clear
11:55 AM 59.0 °F - 15.8 °F 19% 30.11 in 10.0 mi West 12.7 mph 17.3 mph N/A   Clear
12:15 PM 60.8 °F - 15.8 °F 17% 30.10 in 10.0 mi West 12.7 mph - N/A   Clear
12:35 PM 62.6 °F - 15.8 °F 16% 30.09 in 10.0 mi WNW 13.8 mph 20.7 mph N/A   Clear
12:55 PM 62.6 °F - 14.0 °F 15% 30.07 in 10.0 mi West 11.5 mph 19.6 mph N/A   Clear
1:15 PM 62.6 °F - 14.0 °F 15% 30.07 in 10.0 mi WNW 13.8 mph - N/A   Clear
1:35 PM 64.4 °F - 14.0 °F 14% 30.06 in 10.0 mi NW 17.3 mph 23.0 mph N/A   Clear
1:55 PM 64.4 °F - 14.0 °F 14% 30.04 in 10.0 mi NW 23.0 mph 31.1 mph N/A   Clear
2:15 PM 64.4 °F - 14.0 °F 14% 30.02 in 10.0 mi NW 28.8 mph 34.5 mph N/A   Clear
2:35 PM 62.6 °F - 14.0 °F 15% 30.02 in 10.0 mi WNW 26.5 mph 31.1 mph N/A   Clear
2:55 PM 62.6 °F - 12.2 °F 14% 30.01 in 10.0 mi NW 25.3 mph - N/A   Clear
3:15 PM 62.6 °F - 14.0 °F 15% 30.00 in 10.0 mi WNW 24.2 mph 32.2 mph N/A   Clear
3:35 PM 62.6 °F - 12.2 °F 14% 30.00 in 10.0 mi WNW 23.0 mph - N/A   Clear
3:55 PM 60.8 °F - 10.4 °F 14% 30.01 in 10.0 mi WNW 21.9 mph 26.5 mph N/A   Clear
4:15 PM 60.8 °F - 10.4 °F 14% 30.00 in 10.0 mi WNW 20.7 mph 26.5 mph N/A   Clear
4:35 PM 59.0 °F - 10.4 °F 15% 30.00 in 10.0 mi WNW 19.6 mph 25.3 mph N/A   Clear
4:55 PM 57.2 °F - 12.2 °F 17% 30.01 in 10.0 mi WNW 13.8 mph - N/A   Clear
5:15 PM 53.6 °F - 14.0 °F 21% 30.01 in 10.0 mi NW 13.8 mph - N/A   Clear
5:35 PM 53.6 °F - 12.2 °F 19% 30.01 in 10.0 mi WNW 19.6 mph 24.2 mph N/A   Clear
5:55 PM 53.6 °F - 12.2 °F 19% 30.01 in 10.0 mi WNW 15.0 mph - N/A   Clear
6:15 PM 51.8 °F - 14.0 °F 22% 30.02 in 10.0 mi NW 18.4 mph - N/A   Clear
6:35 PM 51.8 °F - 12.2 °F 21% 30.02 in 10.0 mi NW 15.0 mph - N/A   Clear
6:55 PM 50.0 °F - 14.0 °F 24% 30.02 in 10.0 mi NW 15.0 mph - N/A   Clear
7:15 PM 51.8 °F - 10.4 °F 19% 30.02 in 10.0 mi NW 17.3 mph - N/A   Clear
7:35 PM 51.8 °F - 10.4 °F 19% 30.03 in 10.0 mi NNW 12.7 mph 19.6 mph N/A   Clear
7:55 PM 50.0 °F - 14.0 °F 24% 30.03 in 10.0 mi NNW 11.5 mph - N/A   Clear
8:15 PM 48.2 °F - 14.0 °F 25% 30.03 in 10.0 mi NNW 12.7 mph - N/A   Clear
8:35 PM 48.2 °F - 14.0 °F 25% 30.02 in 10.0 mi NNW 8.1 mph - N/A   Clear
8:55 PM 48.2 °F - 15.8 °F 27% 30.02 in 10.0 mi North 6.9 mph - N/A Thunderstorm Clear
9:15 PM 44.6 °F 40.2 °F 17.6 °F 34% 30.01 in 10.0 mi North 8.1 mph - N/A Thunderstorm Clear
9:35 PM 44.6 °F 41.4 °F 17.6 °F 34% 30.01 in 10.0 mi NNE 5.8 mph - N/A   Clear
9:55 PM 44.6 °F 38.8 °F 15.8 °F 31% 30.01 in 10.0 mi North 11.5 mph - N/A   Clear
10:15 PM 46.4 °F 41.1 °F 15.8 °F 29% 30.01 in 10.0 mi NNW 11.5 mph - N/A   Clear
10:35 PM 44.6 °F 38.8 °F 17.6 °F 34% 30.02 in 10.0 mi NNW 11.5 mph - N/A   Clear
10:55 PM 44.6 °F 38.8 °F 17.6 °F 34% 30.01 in 10.0 mi NNW 11.5 mph - N/A   Clear
11:15 PM 44.6 °F 40.2 °F 17.6 °F 34% 30.00 in 10.0 mi NW 8.1 mph - N/A   Clear
11:35 PM 44.6 °F 38.8 °F 17.6 °F 34% 29.99 in 10.0 mi NNW 11.5 mph - N/A   Clear
11:55 PM 42.8 °F 36.2 °F 17.6 °F 36% 29.99 in 10.0 mi NNW 12.7 mph - N/A   Clear